Date String (YYYY-MM-DD hh:mm:ss) UTC,Instrument flags,Ambient pressure (hPa),Sample flow (lpm),Bypass flow (lpm),Sample temperature (°C),Ambient temperature (°C),ASC tube jacket temperature (°C),LED temperature (°C),Box temperature (°C),Sample RH (%),Span deviation,Mass concentration (μg/m³),Mass concentration (μg/m³),Mass concentration (μg/m³)
DateTimeUTC,F1_M11,P_M11,Q1_M11,Q2_M11,T1_M11,T2_M11,T3_M11,T4_M11,T5_M11,U1_M11,ZSPAN_M11,X0_M11,X2_M11,X1_M11
2022-02-27 17:00:00,,0832.5,5.00,0.00,23.8,23.1,00.0,32.6,25.6,08.3,0000.0,0008.18,0004.94,0004.59
2022-02-27 17:01:00,,0832.5,5.00,0.00,23.8,23.0,00.0,32.6,25.6,08.3,0000.0,0008.26,0004.98,0004.62
2022-02-27 17:02:00,,0832.5,5.01,0.00,23.8,23.1,00.0,32.6,25.6,08.5,0000.0,0008.49,0005.13,0004.73
2022-02-27 17:03:00,,0832.6,5.00,0.00,23.8,23.1,00.0,32.7,25.6,08.4,0000.0,0008.61,0005.27,0004.85
2022-02-27 17:04:00,,0832.6,5.00,0.00,23.8,23.1,00.0,32.7,25.6,08.8,0000.0,0008.33,0005.31,0004.93
2022-02-27 17:05:00,,0832.6,5.00,0.00,23.9,23.1,00.0,32.7,25.7,09.0,0000.0,0008.52,0005.48,0005.08
2022-02-27 17:06:00,,0832.6,5.00,0.00,23.9,23.1,00.0,32.7,25.7,09.2,0000.0,0008.66,0005.60,0005.19
2022-02-27 17:07:00,,0832.5,5.01,0.00,23.9,23.1,00.0,32.7,25.7,09.1,0000.0,0008.75,0005.68,0005.28
2022-02-27 17:08:00,,0832.5,5.00,0.00,23.9,23.1,00.0,32.7,25.7,08.8,0000.0,0008.86,0005.76,0005.33
2022-02-27 17:09:00,,0832.5,5.00,0.00,23.9,23.1,00.0,32.7,25.7,08.8,0000.0,0008.88,0005.79,0005.37
2022-02-27 17:10:00,,0832.5,4.98,0.00,23.9,23.1,00.0,32.8,25.7,08.7,0000.0,0008.84,0005.79,0005.37
2022-02-27 17:11:00,,0832.5,5.01,0.00,23.9,23.1,00.0,32.8,25.7,08.5,0000.0,0008.82,0005.77,0005.37
2022-02-27 17:12:00,,0832.5,5.00,0.00,23.9,23.1,00.0,32.8,25.7,08.4,0000.0,0008.90,0005.76,0005.35
2022-02-27 17:13:00,,0832.5,5.00,0.00,23.9,23.1,00.0,32.8,25.7,08.4,0000.0,0009.41,0005.71,0005.33
2022-02-27 17:14:00,,0832.5,5.00,0.00,23.9,23.1,00.0,32.8,25.6,08.3,0000.0,0009.71,0005.67,0005.31
2022-02-27 17:15:00,,0832.5,5.00,0.00,23.9,23.1,00.0,32.8,25.6,08.3,0000.0,0009.69,0005.64,0005.27
2022-02-27 17:16:00,,0832.5,5.00,0.00,23.9,23.1,00.0,32.8,25.6,08.5,0000.0,0009.53,0005.52,0005.16
2022-02-27 17:17:00,,0832.5,5.00,0.00,23.9,23.1,00.0,32.8,25.6,08.4,0000.0,0009.30,0005.36,0005.04
2022-02-27 17:18:00,,0832.5,4.99,0.00,23.9,23.1,00.0,32.8,25.6,08.4,0000.0,0009.33,0005.27,0004.93
2022-02-27 17:19:00,,0832.5,5.00,0.00,23.9,23.1,00.0,32.8,25.6,08.7,0000.0,0009.30,0005.13,0004.82
2022-02-27 17:20:00,,0832.5,5.00,0.00,23.9,23.1,00.0,32.8,25.6,08.6,0000.0,0009.35,0005.00,0004.70
2022-02-27 17:21:00,,0832.4,5.00,0.00,23.9,23.1,00.0,32.8,25.6,08.3,0000.0,0009.27,0004.90,0004.61
2022-02-27 17:22:00,,0832.5,5.00,0.00,23.9,23.1,00.0,32.8,25.7,08.1,0000.0,0009.17,0004.82,0004.54
2022-02-27 17:23:00,,0832.4,5.00,0.00,23.9,23.2,00.0,32.8,25.7,08.1,0000.0,0008.96,0004.77,0004.48
2022-02-27 17:24:00,,0832.4,5.01,0.00,23.9,23.2,00.0,32.8,25.7,07.9,0000.0,0008.26,0004.70,0004.40
2022-02-27 17:25:00,,0832.4,5.00,0.00,24.0,23.2,00.0,32.8,25.8,07.7,0000.0,0007.79,0004.62,0004.33
2022-02-27 17:26:00,,0832.4,5.01,0.00,24.0,23.3,00.0,32.8,25.9,07.5,0000.0,0007.73,0004.55,0004.24
2022-02-27 17:27:00,,0832.4,5.00,0.00,24.0,23.3,00.0,32.8,25.9,07.2,0000.0,0007.73,0004.47,0004.16
2022-02-27 17:28:00,,0832.4,5.00,0.00,24.0,23.3,00.0,32.9,25.9,06.6,0000.0,0007.56,0004.35,0004.04
2022-02-27 17:29:00,,0832.3,4.99,0.00,24.1,23.3,00.0,32.9,25.9,06.3,0000.0,0007.09,0004.19,0003.92
2022-02-27 17:30:00,,0832.4,5.00,0.00,24.1,23.4,00.0,32.9,26.0,06.5,0000.0,0006.70,0004.09,0003.80
2022-02-27 17:31:00,,0832.4,5.00,0.00,24.1,23.4,00.0,32.9,26.0,06.5,0000.0,0005.92,0003.96,0003.69
2022-02-27 17:32:00,,0832.4,5.00,0.00,24.1,23.4,00.0,32.9,26.0,06.9,0000.0,0005.58,0003.84,0003.59
2022-02-27 17:33:00,,0832.3,5.00,0.00,24.2,23.4,00.0,32.9,26.0,07.7,0000.0,0005.45,0003.77,0003.54
2022-02-27 17:34:00,,0832.3,5.00,0.00,24.2,23.4,00.0,33.0,26.1,08.4,0000.0,0005.34,0003.72,0003.49
2022-02-27 17:35:00,,0832.4,5.00,0.00,24.2,23.5,00.0,33.0,26.1,08.5,0000.0,0005.35,0003.69,0003.46
2022-02-27 17:36:00,,0832.4,5.00,0.00,24.2,23.5,00.0,33.0,26.1,08.0,0000.0,0005.27,0003.65,0003.44
2022-02-27 17:37:00,,0832.4,4.99,0.00,24.2,23.5,00.0,33.0,26.1,08.2,0000.0,0005.11,0003.61,0003.41
2022-02-27 17:38:00,,0832.4,5.00,0.00,24.3,23.5,00.0,33.0,26.1,07.0,0000.0,0004.82,0003.55,0003.37
2022-02-27 17:39:00,,0832.4,5.00,0.00,24.3,23.5,00.0,33.0,26.1,06.1,0000.0,0004.88,0003.48,0003.30
2022-02-27 17:40:00,,0832.3,5.00,0.00,24.3,23.6,00.0,33.1,26.2,06.2,0000.0,0005.04,0003.42,0003.25
2022-02-27 17:41:00,,0832.3,5.00,0.00,24.3,23.6,00.0,33.1,26.2,06.5,0000.0,0004.83,0003.36,0003.22
2022-02-27 17:42:00,,0832.3,5.00,0.00,24.3,23.6,00.0,33.1,26.2,06.3,0000.0,0005.29,0003.34,0003.20
2022-02-27 17:43:00,,0832.3,5.01,0.00,24.4,23.6,00.0,33.1,26.2,05.8,0000.0,0005.24,0003.28,0003.14
2022-02-27 17:44:00,,0832.3,5.00,0.00,24.4,23.6,00.0,33.1,26.3,06.0,0000.0,0005.02,0003.19,0003.02
2022-02-27 17:45:00,,0832.3,4.99,0.00,24.4,23.6,00.0,33.2,26.2,06.1,0000.0,0004.81,0003.09,0002.87
2022-02-27 17:46:00,,0832.3,5.00,0.00,24.4,23.7,00.0,33.2,26.3,05.7,0000.0,0004.54,0002.90,0002.73
2022-02-27 17:47:00,,0832.3,5.00,0.00,24.4,23.7,00.0,33.2,26.3,05.9,0000.0,0004.32,0002.71,0002.55
2022-02-27 17:48:00,,0832.3,5.00,0.00,24.4,23.7,00.0,33.2,26.3,05.6,0000.0,0004.18,0002.56,0002.40
2022-02-27 17:49:00,,0832.3,5.00,0.00,24.5,23.7,00.0,33.2,26.3,05.7,0000.0,0004.19,0002.48,0002.28
2022-02-27 17:50:00,,0832.3,5.00,0.00,24.5,23.7,00.0,33.2,26.4,06.2,0000.0,0003.93,0002.43,0002.22
2022-02-27 17:51:00,,0832.2,5.00,0.00,24.5,23.7,00.0,33.3,26.4,06.0,0000.0,0003.64,0002.41,0002.19
2022-02-27 17:52:00,,0832.2,5.00,0.00,24.5,23.7,00.0,33.3,26.4,05.6,0000.0,0003.51,0002.32,0002.11
2022-02-27 17:53:00,,0832.3,5.00,0.00,24.5,23.7,00.0,33.3,26.4,05.5,0000.0,0002.89,0002.21,0002.00
2022-02-27 17:54:00,,0832.3,5.00,0.00,24.5,23.8,00.0,33.3,26.4,05.4,0000.0,0002.81,0002.19,0001.97
2022-02-27 17:55:00,,0832.3,5.01,0.00,24.6,23.8,00.0,33.3,26.5,05.3,0000.0,0002.75,0002.13,0001.91
2022-02-27 17:56:00,,0832.3,5.00,0.00,24.6,23.8,00.0,33.4,26.5,05.2,0000.0,0002.69,0002.07,0001.84
2022-02-27 17:57:00,,0832.3,5.00,0.00,24.6,23.8,00.0,33.4,26.5,05.4,0000.0,0002.65,0002.02,0001.76
2022-02-27 17:58:00,,0832.3,5.00,0.00,24.6,23.9,00.0,33.4,26.5,05.5,0000.0,0002.57,0001.96,0001.69
2022-02-27 17:59:00,,0832.3,5.00,0.00,24.6,23.9,00.0,33.4,26.6,05.2,0000.0,0002.55,0001.90,0001.63
